Spearfish, SD

1:59 AM MDT on September 26, 2016 (GMT -0600)
Black Hills-Ice

Weather History for KSPF - June, 2013

Change the Weather History Date:

Sunday, June 2, 2013

  Actual Average (KEFC) Record (KEFC)
Temperature  
Mean Temperature 54 °F -  
Max Temperature 69 °F 77 °F 98 °F (1977)
Min Temperature 39 °F 46 °F 31 °F (1951)
Degree Days  
Heating Degree Days 11    
Growing Degree Days 4 (Base 50)    
Moisture  
Dew Point 44 °F    
Average Humidity 69    
Maximum Humidity 87    
Minimum Humidity 49    
Precipitation  
Precipitation 0.00 in - - ()
Sea Level Pressure  
Sea Level Pressure 29.99 in    
Wind  
Wind Speed 10 mph (ESE)    
Max Wind Speed 25 mph    
Max Gust Speed 32 mph    
Visibility 10 miles    
Events      
Averages and records for this station are not official NWS values.
T = Trace of Precipitation, MM = Missing Value Source: NWS Daily Summary

Daily Weather History Graph

Daily Weather History Graph

Search for Another Location

Airport or City:

Trip Planner

Search our weather history database for the weather conditions in past years. The results will help you decide how hot, cold, wet, or windy it might be!

Date:

Astronomy

Jun. 02, 2013 Rise Set
Actual Time 6:12 AM CDT 9:33 PM CDT
Civil Twilight 5:37 AM CDT 10:09 PM CDT
Nautical Twilight 4:50 AM CDT 10:56 PM CDT
Astronomical Twilight 3:51 AM CDT 11:55 PM CDT
Moon 2:53 AM CDT (6/2) 3:55 PM CDT (6/2)
Length of Visible Light 16h 32m
Length of Day
15h 20m
Waning Crescent, 30% of the Moon is Illuminated
Jun 2
Waning Crescent
Jun 8
New
Jun 16
First Quarter
Jun 23
Full
Jun 29
Last Quarter

Hourly Weather History & Observations

Time (CDT) Temp. Windchill Dew Point Humidity Pressure Visibility Wind Dir Wind Speed Gust Speed Precip Events Conditions
12:15 AM 42.8 °F 37.5 °F 39.2 °F 87% 30.17 in 10.0 mi SSW 9.2 mph - N/A   Clear
12:35 AM 42.8 °F 37.0 °F 37.4 °F 81% 30.17 in 10.0 mi SSW 10.4 mph - N/A   Clear
12:55 AM 42.8 °F 36.6 °F 37.4 °F 81% 30.16 in 10.0 mi SSW 11.5 mph - N/A   Clear
1:15 AM 41.0 °F 37.1 °F 37.4 °F 87% 30.16 in 10.0 mi South 5.8 mph - N/A   Clear
1:35 AM 39.2 °F 37.0 °F 35.6 °F 87% 30.16 in 10.0 mi WSW 3.5 mph - N/A   Clear
1:55 AM 41.0 °F 37.1 °F 35.6 °F 81% 30.16 in 10.0 mi SW 5.8 mph - N/A   Clear
2:15 AM 39.2 °F 34.2 °F 35.6 °F 87% 30.15 in 10.0 mi SSW 6.9 mph - N/A   Clear
2:35 AM 39.2 °F 35.0 °F 35.6 °F 87% 30.15 in 10.0 mi SSW 5.8 mph - N/A   Clear
2:55 AM 39.2 °F - 35.6 °F 87% 30.15 in 10.0 mi Calm Calm - N/A   Clear
3:15 AM 41.0 °F - 35.6 °F 81% 30.14 in 10.0 mi Calm Calm - N/A   Clear
3:35 AM 39.2 °F 33.6 °F 35.6 °F 87% 30.14 in 10.0 mi South 8.1 mph - N/A   Clear
3:55 AM 41.0 °F 38.0 °F 35.6 °F 81% 30.13 in 10.0 mi South 4.6 mph - N/A   Clear
4:15 AM 39.2 °F 34.2 °F 35.6 °F 87% 30.12 in 10.0 mi SSW 6.9 mph - N/A   Clear
4:35 AM 41.0 °F 39.0 °F 35.6 °F 81% 30.12 in 10.0 mi SSW 3.5 mph - N/A   Clear
4:55 AM 41.0 °F 39.0 °F 33.8 °F 76% 30.12 in 10.0 mi SSW 3.5 mph - N/A   Clear
5:15 AM 39.2 °F 35.9 °F 35.6 °F 87% 30.11 in 10.0 mi SE 4.6 mph - N/A   Clear
5:35 AM 41.0 °F - 33.8 °F 76% 30.10 in 10.0 mi Calm Calm - N/A   Clear
5:55 AM 39.2 °F 35.0 °F 35.6 °F 87% 30.10 in 10.0 mi SSW 5.8 mph - N/A   Clear
6:15 AM 39.2 °F 35.0 °F 35.6 °F 87% 30.10 in 10.0 mi SSW 5.8 mph - N/A   Clear
6:35 AM 39.2 °F - 35.6 °F 87% 30.09 in 10.0 mi Calm Calm - N/A   Clear
6:55 AM 41.0 °F - 37.4 °F 87% 30.09 in 10.0 mi Calm Calm - N/A   Clear
7:15 AM 42.8 °F - 39.2 °F 87% 30.09 in 10.0 mi Calm Calm - N/A   Clear
7:35 AM 44.6 °F - 39.2 °F 81% 30.09 in 10.0 mi Calm Calm - N/A   Clear
7:55 AM 46.4 °F - 39.2 °F 76% 30.08 in 10.0 mi Calm Calm - N/A   Clear
8:15 AM 48.2 °F - 39.2 °F 71% 30.08 in 10.0 mi Calm Calm - N/A   Clear
8:35 AM 50.0 °F - 39.2 °F 66% 30.07 in 10.0 mi Calm Calm - N/A   Clear
8:55 AM 53.6 °F - 41.0 °F 62% 30.07 in 10.0 mi East 3.5 mph - N/A   Clear
9:15 AM 53.6 °F - 44.6 °F 72% 30.06 in 10.0 mi ENE 3.5 mph - N/A   Clear
9:35 AM 55.4 °F - 44.6 °F 67% 30.06 in 10.0 mi NE 5.8 mph - N/A   Clear
9:55 AM 55.4 °F - 44.6 °F 67% 30.05 in 10.0 mi NE 9.2 mph - N/A   Clear
10:15 AM 55.4 °F - 46.4 °F 72% 30.05 in 10.0 mi NE 9.2 mph - N/A   Clear
10:35 AM 57.2 °F - 46.4 °F 67% 30.04 in 10.0 mi ENE 9.2 mph - N/A   Clear
10:55 AM 59.0 °F - 46.4 °F 63% 30.04 in 10.0 mi ENE 9.2 mph - N/A   Clear
11:15 AM 59.0 °F - 44.6 °F 59% 30.03 in 10.0 mi ENE 10.4 mph - N/A   Clear
11:35 AM 59.0 °F - 44.6 °F 59% 30.02 in 10.0 mi East 11.5 mph - N/A   Clear
11:55 AM 60.8 °F - 48.2 °F 63% 30.01 in 10.0 mi East 11.5 mph - N/A   Clear
12:15 PM 60.8 °F - 48.2 °F 63% 30.01 in 10.0 mi ENE 10.4 mph - N/A   Clear
12:35 PM 62.6 °F - 48.2 °F 59% 30.00 in 10.0 mi ENE 11.5 mph 18.4 mph N/A   Clear
12:55 PM 62.6 °F - 48.2 °F 59% 29.99 in 10.0 mi ENE 13.8 mph 21.9 mph N/A   Clear
1:15 PM 62.6 °F - 48.2 °F 59% 29.98 in 10.0 mi ENE 10.4 mph - N/A   Clear
1:35 PM 64.4 °F - 48.2 °F 56% 29.97 in 10.0 mi East 16.1 mph 21.9 mph N/A   Clear
1:55 PM 64.4 °F - 48.2 °F 56% 29.96 in 10.0 mi East 17.3 mph 23.0 mph N/A   Clear
2:15 PM 66.2 °F - 48.2 °F 52% 29.96 in 10.0 mi East 15.0 mph 21.9 mph N/A   Clear
2:35 PM 66.2 °F - 48.2 °F 52% 29.94 in 10.0 mi ENE 17.3 mph 21.9 mph N/A   Clear
2:55 PM 66.2 °F - 50.0 °F 56% 29.93 in 10.0 mi East 18.4 mph 25.3 mph N/A   Clear
3:15 PM 68.0 °F - 50.0 °F 52% 29.92 in 10.0 mi East 17.3 mph - N/A   Clear
3:35 PM 68.0 °F - 50.0 °F 52% 29.91 in 10.0 mi East 19.6 mph 24.2 mph N/A   Clear
3:55 PM 68.0 °F - 50.0 °F 52% 29.90 in 10.0 mi East 20.7 mph 25.3 mph N/A   Clear
4:15 PM 68.0 °F - 50.0 °F 52% 29.89 in 10.0 mi ESE 19.6 mph - N/A   Clear
4:35 PM 68.0 °F - 50.0 °F 52% 29.89 in 10.0 mi East 16.1 mph 25.3 mph N/A   Clear
4:55 PM 69.8 °F - 50.0 °F 49% 29.88 in 10.0 mi East 16.1 mph 24.2 mph N/A   Clear
5:15 PM 69.8 °F - 51.8 °F 53% 29.88 in 10.0 mi East 16.1 mph 25.3 mph N/A   Clear
5:35 PM 69.8 °F - 50.0 °F 49% 29.87 in 10.0 mi East 18.4 mph - N/A   Clear
5:55 PM 69.8 °F - 50.0 °F 49% 29.87 in 10.0 mi East 17.3 mph 24.2 mph N/A   Clear
6:15 PM 69.8 °F - 51.8 °F 53% 29.87 in 10.0 mi East 16.1 mph 23.0 mph N/A   Clear
6:35 PM 68.0 °F - 50.0 °F 52% 29.86 in 10.0 mi East 19.6 mph 24.2 mph N/A   Clear
6:55 PM 68.0 °F - 50.0 °F 52% 29.86 in 10.0 mi East 20.7 mph 26.5 mph N/A   Clear
7:15 PM 66.2 °F - 51.8 °F 60% 29.85 in 10.0 mi East 25.3 mph 32.2 mph N/A   Clear
7:35 PM 64.4 °F - 51.8 °F 64% 29.85 in 10.0 mi East 21.9 mph 27.6 mph N/A   Clear
7:55 PM 64.4 °F - 50.0 °F 59% 29.85 in 10.0 mi ESE 25.3 mph 31.1 mph N/A   Clear
8:15 PM 62.6 °F - 50.0 °F 63% 29.85 in 10.0 mi East 20.7 mph 26.5 mph N/A   Clear
8:35 PM 60.8 °F - 50.0 °F 68% 29.84 in 10.0 mi ESE 19.6 mph 26.5 mph N/A   Clear
8:55 PM 59.0 °F - 50.0 °F 72% 29.84 in 2.5 mi ESE 21.9 mph 27.6 mph N/A   Haze
9:15 PM 59.0 °F - 50.0 °F 72% 29.83 in 10.0 mi ESE 19.6 mph 26.5 mph N/A   Clear
9:35 PM 59.0 °F - 50.0 °F 72% 29.83 in 10.0 mi ESE 24.2 mph 31.1 mph N/A   Clear
9:55 PM 57.2 °F - 50.0 °F 77% 29.84 in 10.0 mi ESE 19.6 mph - N/A   Clear
10:15 PM 57.2 °F - 50.0 °F 77% 29.84 in 10.0 mi East 20.7 mph 26.5 mph N/A   Clear
10:35 PM 57.2 °F - 50.0 °F 77% 29.83 in 10.0 mi East 21.9 mph 27.6 mph N/A   Clear
10:55 PM 57.2 °F - 48.2 °F 72% 29.82 in 10.0 mi East 24.2 mph 29.9 mph N/A   Clear
11:15 PM 55.4 °F - 48.2 °F 77% 29.81 in 10.0 mi East 20.7 mph 31.1 mph N/A   Clear
11:35 PM 55.4 °F - 48.2 °F 77% 29.80 in 10.0 mi East 19.6 mph - N/A   Clear
11:55 PM 53.6 °F - 48.2 °F 82% 29.78 in 10.0 mi East 20.7 mph 28.8 mph N/A   Clear